Weather History for VOHY - October, 2011

Change the Weather History Date:

Wednesday, October 26, 2011

  Actual Average Record
Temperature  
Mean Temperature 79 °F -  
Max Temperature 86 °F 82 °F 91 °F (2000)
Min Temperature 72 °F 65 °F 63 °F (2014)
Cooling Degree Days 14    
Growing Degree Days 29 (Base 50)    
Moisture  
Dew Point 62 °F    
Average Humidity 56    
Maximum Humidity 88    
Minimum Humidity 39    
Precipitation  
Precipitation 0.12 in 0.05 in - ()
Sea Level Pressure  
Sea Level Pressure 29.92 in    
Wind  
Wind Speed 5 mph ()    
Max Wind Speed 10 mph    
Max Gust Speed -    
Visibility 3.5 miles    
Events Rain    
Averages and records for this station are not official NWS values.
T = Trace of Precipitation, MM = Missing Value Source: Averaged Metar Reports

Daily Weather History Graph

Daily Weather History Graph

Search for Another Location

Airport or City:

Trip Planner

Search our weather history database for the weather conditions in past years. The results will help you decide how hot, cold, wet, or windy it might be!

Date:

Astronomy

Oct. 26, 2011 Rise Set
Actual Time 6:12 AM IST 5:47 PM IST
Civil Twilight 5:50 AM IST 6:09 PM IST
Nautical Twilight 5:24 AM IST 6:35 PM IST
Astronomical Twilight 4:59 AM IST 7:00 PM IST
Moon 5:23 AM IST (10/26) 5:16 PM IST (10/26)
Length of Visible Light 12h 19m
Length of Day
11h 35m
Waning Crescent, 1% of the Moon is Illuminated
Oct 26
Waning Crescent
Oct 27
New
Nov 2
First Quarter
Nov 11
Full
Nov 18
Last Quarter

Hourly Weather History & Observations

Time (IST) Temp. Heat Index Dew Point Humidity Pressure Visibility Wind Dir Wind Speed Gust Speed Precip Events Conditions
2:30 AM 74 °F - 71 °F 88% 29.86 in 2 mi SE 6.9 mph - - Rain Light Drizzle
5:30 AM 73 °F - 70 °F 88% 29.85 in 2 mi SE 5.8 mph - -   Haze
6:10 AM 71.6 °F - 66.2 °F 83% 29.95 in 2.5 mi East 3.5 mph - N/A   Haze
7:10 AM 71.6 °F - 66.2 °F 83% 29.98 in 2.5 mi NE 5.8 mph - N/A   Haze
8:30 AM 76 °F - 71 °F 78% 29.90 in 2 mi East 6.9 mph - -   Haze
10:10 AM 78.8 °F - 64.4 °F 61% 30.04 in 3.7 mi East 8.1 mph - N/A   Mostly Cloudy
11:10 AM 80.6 °F 81.5 °F 60.8 °F 51% 30.01 in 3.7 mi ENE 6.9 mph - N/A   Mostly Cloudy
11:30 AM 83 °F - 69 °F 55% 29.87 in 6 mi ESE 5.8 mph - -   Mostly Cloudy
12:10 PM 80.6 °F 81.8 °F 62.6 °F 54% 29.98 in 3.7 mi ESE 6.9 mph - N/A   Mostly Cloudy
1:10 PM 82.4 °F 82.5 °F 59.0 °F 45% 29.95 in 3.7 mi ENE 10.4 mph - N/A   Mostly Cloudy
2:30 PM 85 °F - 65 °F 42% 29.79 in 6 mi East 3.5 mph - -   Partly Cloudy
2:40 PM 82.4 °F 82.0 °F 57.2 °F 42% 29.92 in 3.7 mi East 8.1 mph - N/A   Mostly Cloudy
3:10 PM 82.4 °F 81.7 °F 55.4 °F 39% 29.92 in 3.7 mi ENE 9.2 mph - N/A   Mostly Cloudy
4:10 PM 82.4 °F 82.0 °F 57.2 °F 42% 29.89 in 3.7 mi East 5.8 mph - N/A   Mostly Cloudy
5:10 PM 82.4 °F 82.5 °F 59.0 °F 45% 29.92 in 3.7 mi ESE 5.8 mph - N/A   Mostly Cloudy
5:30 PM 82 °F - 65 °F 46% 29.81 in 6 mi ESE 4.6 mph - -   Partly Cloudy
6:40 PM 78.8 °F - 53.6 °F 42% 29.95 in 3.7 mi East 3.5 mph - N/A   Scattered Clouds
7:40 PM 78.8 °F - 51.8 °F 39% 29.98 in - East 5.8 mph - N/A   Haze
8:10 PM 78.8 °F - 51.8 °F 39% 29.98 in 3.1 mi East 4.6 mph - N/A   Haze
8:30 PM 80 °F - 62 °F 45% 29.88 in 2 mi 2.3 mph - -   Smoke
9:10 PM 78.8 °F - 53.6 °F 42% 30.01 in 3.1 mi East 5.8 mph - N/A   Haze
11:30 PM 75 °F - 72 °F 87% 29.91 in 2 mi 1.2 mph - - Rain Light Rain